Regional Weather Roundup
Issued by NWS

Home | Current Version | Previous Version | Graphics & Text | Print | Product List | Glossary On
Versions: 1 2 3 4 5 6 7 8 9 10 11 12 13 14 15 16 17 18 19 20 21 22 23 24 25 26 27 28 29 30 31 32 33 34 35 36 37 38 39 40 41 42 43 44 45 46 47 48 49 50
597
ASUS44 KLIX 190201
RWRLA
LOUISIANA WEATHER ROUNDUP
NATIONAL WEATHER SERVICE NEW ORLEANS LA
800 PM CST THU DEC 18 2014

NOTE: "FAIR" INDICATES FEW OR NO CLOUDS BELOW 12,000 FEET WITH NO
      SIGNIFICANT WEATHER AND/OR OBSTRUCTIONS TO VISIBILITY.
      SKY/WX - SKY CONDITION AND SIGNIFICANT WEATHER.
      TMP - AIR TEMPERATURE.    DP   - DEWPOINT TEMPERATURE.
      RH  - RELATIVE HUMIDITY.  PRES - PRESSURE.
      HX  - HEAT INDEX.         WCI  - WIND CHILL INDEX.

*  THESE STATIONS ARE NOT NWS OR FAA STATIONS AND ARE NOT UNDER
   NWS QUALITY CONTROL.

LAZ040-048-061>063-065-066-069-190300-
SOUTHEAST LOUISIANA

CITY           SKY/WX    TMP DP  RH WIND       PRES   REMARKS
N.O. AUDUBON     N/A     59  58  95 MISG        N/A
N.O. INTL ARPT CLOUDY    59  54  83 NE8       30.14R
N.O. LAKEFRONT CLOUDY    60  54  80 E9        30.14S
N.O. DOWNTOWN* MOCLDY    57  52  82 NE5       30.14S
SLIDELL        CLOUDY    60  52  74 N5        30.14R
BATON ROUGE    CLOUDY    57  55  93 N5        30.12S
BOOTHVILLE     CLOUDY    62  58  86 E3        30.13R
BELLE CHASSE   CLOUDY    57  56  96 NE7       30.13R
BOGALUSA*      DRIZZLE   54  51  90 N8        30.17S
GALLIANO*      NOT AVBL
NEW ROADS*     NOT AVBL
GONZALES*      NOT AVBL
HAMMOND*       NOT AVBL
HOUMA*         CLOUDY    60  59  96 NE7       30.12R FOG
PORT FOURCHON* NOT AVBL

$$

LAZ041-044-053-054-190300-
SOUTHWEST LOUISIANA

CITY           SKY/WX    TMP DP  RH WIND       PRES   REMARKS
LAKE CHARLES   CLOUDY    57  53  86 NE10      30.10R
LAFAYETTE      CLOUDY    60  53  77 NE5       30.11S
PATTERSON      CLOUDY    57  57 100 NE10      30.11S
SALT POINT       N/A     66  62  87 E3        30.09R
NEW IBERIA     CLOUDY    62  54  74 E7        30.11R
CHENAULT AIRPK CLOUDY    55  54  94 NE8       30.12R

$$

LAZ027-028-190300-
CENTRAL LOUISIANA

CITY           SKY/WX    TMP DP  RH WIND       PRES   REMARKS
FORT POLK      CLOUDY    52  51  95 NE6       30.12S
ALEXANDRIA INT CLOUDY    52  50  93 E5        30.13S
ALEXANDRIA     CLOUDY    53  49  86 CALM      30.15R

$$

LAZ001-002-190300-
NORTHWEST LOUISIANA

CITY           SKY/WX    TMP DP  RH WIND       PRES   REMARKS
SHREVEPORT     CLOUDY    51  48  89 E6        30.15S
BARKSDALE AFB  NOT AVBL
DTN SHREVEPORT CLOUDY    50  46  86 CALM      30.16S

$$

LAZ014-016-190300-
NORTHEAST LOUISIANA

CITY           SKY/WX    TMP DP  RH WIND       PRES   REMARKS
MONROE         PTCLDY    47  45  93 NE3       30.18R
TALLULAH       MOCLDY    46  44  93 CALM      30.18R

$$




USA.gov is the U.S. government's official web portal to all federal, state and local government web resources and services.